Location: Miles
(41.4492°N, 81.6087°W)
Time: 19:02:30
(UTC+00:00)

Transit 2A - Pass Details

Date: 14 September 2024
Orbit: 590 x 960 km, 66.7° (Epoch: 05 October)

Event Time Altitude Azimuth Distance (km) Brightness Sun altitude
Rises 10:32:45 0° 317° (NW) 3,609 9.2 -7.1°
Reaches altitude 10° 10:35:58 10° 302° (WNW) 2,622 8.3 -6.5°
Maximum altitude 10:40:20 21° 256° (WSW) 1,894 7.4 -5.7°
Drops below altitude 10° 10:44:28 10° 210° (SSW) 2,457 8.3 -4.9°
Sets 10:47:23 0° 194° (SSW) 3,318 9.1 -4.4°
